• en France
  • Liste des pays
  • À 7 jours
  • Température de l'eau
  • Carte satellitaire
  • Carte météo
  • Widgets météo
  • user-avatar
    Se connecter

    Météo par heure à Medellín

    Ce jour, 20 Août, Lundi

    Heure Température Précipitation Vent Pression Humidité
    00:00 +12°C° 0 mm 1 m/s 585 mmHg 83%
    01:00 +12°C° 0 mm 1 m/s 585 mmHg 83%
    02:00 +11°C° 0 mm 1 m/s 585 mmHg 82%
    03:00 +11°C° 0 mm 1 m/s 585 mmHg 82%
    04:00 +11°C° 0 mm 1 m/s 585 mmHg 82%
    05:00 +12°C° 0 mm 1 m/s 585 mmHg 79%
    06:00 +12°C° 0 mm 1 m/s 585 mmHg 76%
    07:00 +13°C° 0 mm 1 m/s 586 mmHg 73%
    08:00 +16°C° 0 mm 1 m/s 587 mmHg 61%
    09:00 +21°C° 0 mm 1 m/s 589 mmHg 48%
    10:00 +24°C° 0 mm 2 m/s 590 mmHg 35%
    11:00 +25°C° 0 mm 2 m/s 590 mmHg 32%
    12:00 +26°C° 0 mm 2 m/s 590 mmHg 29%
    13:00 +28°C° 0 mm 2 m/s 590 mmHg 26%
    14:00 +27°C° 0 mm 2 m/s 589 mmHg 27%
    15:00 +27°C° 0 mm 2 m/s 589 mmHg 29%
    16:00 +26°C° 0 mm 2 m/s 588 mmHg 30%
    17:00 +23°C° 0 mm 2 m/s 587 mmHg 40%
    18:00 +19°C° 0 mm 2 m/s 586 mmHg 50%
    19:00 +16°C° 0 mm 1 m/s 585 mmHg 61%
    20:00 +15°C° 0 mm 1 m/s 586 mmHg 64%
    21:00 +14°C° 0 mm 1 m/s 586 mmHg 67%
    22:00 +14°C° 0 mm 1 m/s 586 mmHg 70%
    23:00 +13°C° 0 mm 1 m/s 586 mmHg 70%

    Demain, 21 Août, Mardi

    Heure Température Précipitation Vent Pression Humidité
    00:00 +13°C° 0 mm 1 m/s 586 mmHg 71%
    01:00 +13°C° 0 mm 1 m/s 586 mmHg 72%
    02:00 +13°C° 0 mm 1 m/s 586 mmHg 72%
    03:00 +12°C° 0 mm 1 m/s 585 mmHg 73%
    04:00 +12°C° 0 mm 1 m/s 585 mmHg 74%
    05:00 +12°C° 0 mm 1 m/s 585 mmHg 72%
    06:00 +13°C° 0 mm 1 m/s 586 mmHg 70%
    07:00 +14°C° 0 mm 1 m/s 586 mmHg 68%
    08:00 +18°C° 0 mm 1 m/s 588 mmHg 59%
    09:00 +21°C° 0 mm 1 m/s 589 mmHg 49%
    10:00 +23°C° 0 mm 2 m/s 590 mmHg 39%
    11:00 +24°C° 0 mm 2 m/s 590 mmHg 37%
    12:00 +25°C° 0 mm 2 m/s 590 mmHg 35%
    13:00 +26°C° 0 mm 2 m/s 590 mmHg 33%
    14:00 +26°C° 0 mm 2 m/s 589 mmHg 35%
    15:00 +26°C° 0 mm 2 m/s 588 mmHg 36%
    16:00 +25°C° 0 mm 2 m/s 588 mmHg 37%
    17:00 +21°C° 0,2 mm 2 m/s 587 mmHg 48%
    18:00 +20°C° 0,2 mm 1 m/s 586 mmHg 59%
    19:00 +16°C° 0,2 mm 1 m/s 585 mmHg 70%
    20:00 +15°C° 0,3 mm 1 m/s 586 mmHg 73%
    21:00 +14°C° 0,3 mm 1 m/s 586 mmHg 77%
    22:00 +13°C° 0,3 mm 1 m/s 586 mmHg 80%
    23:00 +13°C° 0,1 mm 1 m/s 586 mmHg 80%

    Après-demain, 22 Août, Mercredi

    Heure Température Précipitation Vent Pression Humidité
    00:00 +13°C° 0,1 mm 1 m/s 586 mmHg 80%
    01:00 +13°C° 0,1 mm 1 m/s 585 mmHg 80%
    02:00 +12°C° 0,1 mm 1 m/s 585 mmHg 79%
    03:00 +12°C° 0,1 mm 1 m/s 585 mmHg 78%
    04:00 +12°C° 0,1 mm 1 m/s 584 mmHg 78%
    05:00 +13°C° 0,1 mm 1 m/s 585 mmHg 77%
    06:00 +13°C° 0,1 mm 1 m/s 585 mmHg 76%
    07:00 +14°C° 0,1 mm 1 m/s 586 mmHg 75%
    08:00 +16°C° 0 mm 1 m/s 587 mmHg 65%
    09:00 +20°C° 0 mm 1 m/s 589 mmHg 55%
    10:00 +23°C° 0 mm 1 m/s 590 mmHg 45%
    11:00 +24°C° 0,1 mm 1 m/s 590 mmHg 42%
    12:00 +25°C° 0,1 mm 1 m/s 590 mmHg 39%
    13:00 +27°C° 0,1 mm 2 m/s 590 mmHg 35%
    14:00 +26°C° 0,2 mm 2 m/s 589 mmHg 36%
    15:00 +26°C° 0,2 mm 2 m/s 588 mmHg 36%
    16:00 +25°C° 0,2 mm 2 m/s 588 mmHg 36%
    17:00 +23°C° 0,3 mm 2 m/s 587 mmHg 44%
    18:00 +19°C° 0,3 mm 2 m/s 587 mmHg 53%
    19:00 +18°C° 0,3 mm 1 m/s 586 mmHg 61%
    20:00 +16°C° 0,1 mm 1 m/s 586 mmHg 65%
    21:00 +15°C° 0,1 mm 1 m/s 586 mmHg 68%
    22:00 +15°C° 0,1 mm 1 m/s 587 mmHg 72%
    23:00 +14°C° 0 mm 1 m/s 586 mmHg 73%

    23 Août, Jeudi

    Heure Température Précipitation Vent Pression Humidité
    00:00 +14°C° 0 mm 1 m/s 586 mmHg 75%
    01:00 +13°C° 0 mm 1 m/s 586 mmHg 76%
    02:00 +13°C° 0 mm 1 m/s 585 mmHg 76%
    03:00 +13°C° 0 mm 1 m/s 585 mmHg 76%
    04:00 +13°C° 0 mm 1 m/s 585 mmHg 75%
    05:00 +13°C° 0 mm 1 m/s 585 mmHg 74%
    06:00 +13°C° 0 mm 1 m/s 586 mmHg 72%
    07:00 +14°C° 0 mm 1 m/s 586 mmHg 71%
    08:00 +16°C° 0 mm 1 m/s 588 mmHg 62%
    09:00 +20°C° 0 mm 1 m/s 589 mmHg 54%
    10:00 +22°C° 0 mm 1 m/s 590 mmHg 45%
    11:00 +24°C° 0,1 mm 1 m/s 590 mmHg 42%
    12:00 +25°C° 0,1 mm 1 m/s 590 mmHg 39%
    13:00 +26°C° 0,1 mm 1 m/s 590 mmHg 36%
    14:00 +26°C° 0,2 mm 1 m/s 589 mmHg 38%
    15:00 +25°C° 0,2 mm 1 m/s 588 mmHg 40%
    16:00 +24°C° 0,2 mm 1 m/s 587 mmHg 42%
    17:00 +22°C° 0,3 mm 1 m/s 587 mmHg 50%
    18:00 +19°C° 0,3 mm 1 m/s 586 mmHg 58%
    19:00 +16°C° 0,3 mm 1 m/s 586 mmHg 66%
    20:00 +15°C° 0,1 mm 1 m/s 586 mmHg 71%
    21:00 +15°C° 0,1 mm 1 m/s 586 mmHg 75%
    22:00 +14°C° 0,1 mm 1 m/s 586 mmHg 80%
    23:00 +14°C° 0,1 mm 1 m/s 586 mmHg 82%

    24 Août, Vendredi

    Heure Température Précipitation Vent Pression Humidité
    00:00 +13°C° 0,1 mm 1 m/s 586 mmHg 84%
    01:00 +13°C° 0,1 mm 1 m/s 585 mmHg 87%
    02:00 +13°C° 0,2 mm 1 m/s 585 mmHg 87%
    03:00 +13°C° 0,2 mm 1 m/s 585 mmHg 88%
    04:00 +13°C° 0,2 mm 1 m/s 585 mmHg 88%
    05:00 +13°C° 0,2 mm 1 m/s 585 mmHg 87%
    06:00 +13°C° 0,2 mm 1 m/s 586 mmHg 86%
    07:00 +14°C° 0,2 mm 1 m/s 586 mmHg 85%
    08:00 +15°C° 0,2 mm 1 m/s 587 mmHg 79%
    09:00 +18°C° 0,2 mm 1 m/s 588 mmHg 72%
    10:00 +20°C° 0,2 mm 1 m/s 589 mmHg 66%
    11:00 +21°C° 0,3 mm 1 m/s 589 mmHg 60%
    12:00 +23°C° 0,3 mm 1 m/s 589 mmHg 54%
    13:00 +24°C° 0,3 mm 1 m/s 589 mmHg 48%
    14:00 +23°C° 0,4 mm 1 m/s 588 mmHg 50%
    15:00 +23°C° 0,4 mm 1 m/s 588 mmHg 51%
    16:00 +22°C° 0,4 mm 1 m/s 587 mmHg 52%
    17:00 +20°C° 0,5 mm 1 m/s 587 mmHg 59%
    18:00 +18°C° 0,5 mm 1 m/s 587 mmHg 66%
    19:00 +16°C° 0,5 mm 1 m/s 586 mmHg 73%
    20:00 +15°C° 0,2 mm 1 m/s 586 mmHg 77%
    21:00 +14°C° 0,2 mm 1 m/s 587 mmHg 81%
    22:00 +13°C° 0,2 mm 1 m/s 587 mmHg 85%
    23:00 +13°C° 0,2 mm 1 m/s 586 mmHg 86%

    25 Août, Samedi

    Heure Température Précipitation Vent Pression Humidité
    00:00 +13°C° 0,2 mm 1 m/s 586 mmHg 87%
    01:00 +13°C° 0,2 mm 1 m/s 586 mmHg 88%
    02:00 +13°C° 0,3 mm 1 m/s 586 mmHg 88%
    03:00 +12°C° 0,3 mm 1 m/s 585 mmHg 88%
    04:00 +12°C° 0,3 mm 1 m/s 585 mmHg 88%
    05:00 +13°C° 0,1 mm 1 m/s 586 mmHg 87%
    06:00 +13°C° 0,1 mm 1 m/s 586 mmHg 86%
    07:00 +13°C° 0,1 mm 1 m/s 587 mmHg 85%
    08:00 +15°C° 0,1 mm 1 m/s 588 mmHg 76%
    09:00 +18°C° 0,1 mm 1 m/s 588 mmHg 66%
    10:00 +21°C° 0,1 mm 1 m/s 589 mmHg 57%
    11:00 +22°C° 0,2 mm 1 m/s 589 mmHg 53%
    12:00 +23°C° 0,2 mm 1 m/s 589 mmHg 49%
    13:00 +24°C° 0,2 mm 1 m/s 589 mmHg 45%
    14:00 +24°C° 0,2 mm 1 m/s 588 mmHg 46%
    15:00 +23°C° 0,2 mm 1 m/s 588 mmHg 47%
    16:00 +23°C° 0,2 mm 1 m/s 587 mmHg 48%
    17:00 +21°C° 0,2 mm 1 m/s 587 mmHg 55%
    18:00 +19°C° 0,2 mm 1 m/s 587 mmHg 63%
    19:00 +15°C° 0,2 mm 1 m/s 586 mmHg 71%
    20:00 +15°C° 0,1 mm 1 m/s 586 mmHg 74%
    21:00 +14°C° 0,1 mm 1 m/s 587 mmHg 78%
    22:00 +13°C° 0,1 mm 1 m/s 587 mmHg 81%
    23:00 +13°C° 0,4 mm 1 m/s 586 mmHg 83%
    Voir plus